Wetterdaten: Donnerstag, 28.06.2018
Datum Zeit Temp. A. Aussen2m Boden Feuchte A. Feuchte 2 Luftdruck Regen Wind Richtung Richtung Sonnenschein
28.06.2018 00:00 21,7 C 21,8 C 10,8 C 45 % 50 % 1020,7 hPa 0,0 l/m 12,1 km/h (2 Bft) O-NO 75 0 min
28.06.2018 00:05 21,9 C 21,8 C 10,8 C 45 % 50 % 1020,7 hPa 0,0 l/m 9,7 km/h (2 Bft) O 95 0 min
28.06.2018 00:10 21,8 C 21,8 C 10,8 C 45 % 50 % 1020,7 hPa 0,0 l/m 21,2 km/h (4 Bft) O-SO 105 0 min
28.06.2018 00:15 21,9 C 21,8 C 10,8 C 45 % 50 % 1020,7 hPa 0,0 l/m 21,2 km/h (4 Bft) O 90 0 min
28.06.2018 00:20 21,8 C 21,7 C 10,8 C 45 % 50 % 1020,7 hPa 0,0 l/m 10,3 km/h (2 Bft) O-SO 115 0 min
28.06.2018 00:25 21,6 C 21,6 C 10,8 C 45 % 50 % 1020,7 hPa 0,0 l/m 15,7 km/h (3 Bft) O 90 0 min
28.06.2018 00:30 21,5 C 21,6 C 10,8 C 45 % 50 % 1020,7 hPa 0,0 l/m 12,1 km/h (2 Bft) NO 45 0 min
28.06.2018 00:35 21,3 C 21,5 C 10,8 C 46 % 51 % 1020,7 hPa 0,0 l/m 15,7 km/h (3 Bft) O-NO 75 0 min
28.06.2018 00:40 21,2 C 21,3 C 10,8 C 46 % 51 % 1020,7 hPa 0,0 l/m 15,1 km/h (3 Bft) O-SO 120 0 min
28.06.2018 00:45 21,1 C 21,2 C 10,8 C 47 % 51 % 1020,7 hPa 0,0 l/m 11,5 km/h (2 Bft) O-NO 60 0 min
28.06.2018 00:50 21,1 C 21,1 C 10,8 C 47 % 52 % 1020,7 hPa 0,0 l/m 14,5 km/h (3 Bft) N 355 0 min
28.06.2018 00:55 21,0 C 21,1 C 10,8 C 47 % 52 % 1020,7 hPa 0,0 l/m 15,7 km/h (3 Bft) SO 135 0 min
28.06.2018 01:00 20,9 C 21,0 C 10,8 C 47 % 52 % 1020,7 hPa 0,0 l/m 11,5 km/h (2 Bft) O-NO 75 0 min
28.06.2018 01:05 20,7 C 20,8 C 10,8 C 48 % 53 % 1020,7 hPa 0,0 l/m 14,5 km/h (3 Bft) O 80 0 min
28.06.2018 01:10 20,6 C 20,7 C 10,8 C 48 % 53 % 1020,7 hPa 0,0 l/m 14,5 km/h (3 Bft) NO 40 0 min
28.06.2018 01:15 20,5 C 20,6 C 10,8 C 49 % 54 % 1020,7 hPa 0,0 l/m 12,7 km/h (3 Bft) NO 55 0 min
28.06.2018 01:20 20,5 C 20,6 C 10,8 C 49 % 54 % 1020,7 hPa 0,0 l/m 12,1 km/h (2 Bft) O-SO 120 0 min
28.06.2018 01:25 20,5 C 20,6 C 10,8 C 49 % 54 % 1020,7 hPa 0,0 l/m 9,7 km/h (2 Bft) N-NO 15 0 min
28.06.2018 01:30 20,5 C 20,5 C 10,8 C 49 % 54 % 1020,7 hPa 0,0 l/m 16,3 km/h (3 Bft) S-SW 210 0 min
28.06.2018 01:35 20,4 C 20,5 C 10,8 C 49 % 54 % 1020,7 hPa 0,0 l/m 9,7 km/h (2 Bft) NO 40 0 min
28.06.2018 01:40 20,4 C 20,4 C 10,8 C 49 % 54 % 1020,7 hPa 0,0 l/m 15,1 km/h (3 Bft) NO 55 0 min
28.06.2018 01:45 20,3 C 20,4 C 10,8 C 49 % 55 % 1020,7 hPa 0,0 l/m 14,5 km/h (3 Bft) SO 135 0 min
28.06.2018 01:50 20,1 C 20,2 C 10,8 C 50 % 55 % 1020,7 hPa 0,0 l/m 13,3 km/h (3 Bft) O-NO 75 0 min
28.06.2018 01:55 20,1 C 20,2 C 10,8 C 50 % 55 % 1020,7 hPa 0,0 l/m 16,3 km/h (3 Bft) NO 40 0 min
28.06.2018 02:00 20,1 C 20,1 C 10,8 C 50 % 55 % 1020,7 hPa 0,0 l/m 15,1 km/h (3 Bft) O 90 0 min
28.06.2018 02:05 20,2 C 20,2 C 10,8 C 50 % 55 % 1020,7 hPa 0,0 l/m 11,5 km/h (2 Bft) NO 45 0 min
28.06.2018 02:10 20,2 C 20,2 C 10,8 C 50 % 55 % 1020,7 hPa 0,0 l/m 18,2 km/h (3 Bft) O-SO 115 0 min
28.06.2018 02:15 20,2 C 20,2 C 10,8 C 50 % 55 % 1020,7 hPa 0,0 l/m 11,5 km/h (2 Bft) S-SO 155 0 min
28.06.2018 02:20 20,2 C 20,2 C 10,8 C 50 % 56 % 1020,7 hPa 0,0 l/m 21,2 km/h (4 Bft) N 5 0 min
28.06.2018 02:25 19,6 C 20,0 C 10,8 C 52 % 57 % 1020,7 hPa 0,0 l/m 8,5 km/h (2 Bft) N 10 0 min
28.06.2018 02:30 19,2 C 19,8 C 10,8 C 54 % 58 % 1020,7 hPa 0,0 l/m 12,7 km/h (3 Bft) NO 45 0 min
28.06.2018 02:35 19,1 C 19,5 C 10,8 C 54 % 59 % 1020,7 hPa 0,0 l/m 3,6 km/h (1 Bft) N 10 0 min
28.06.2018 02:40 18,8 C 19,3 C 10,8 C 55 % 60 % 1020,7 hPa 0,0 l/m 3,6 km/h (1 Bft) N-NW 330 0 min
28.06.2018 02:45 18,7 C 18,9 C 10,8 C 55 % 60 % 1020,7 hPa 0,0 l/m 1,8 km/h (1 Bft) N-NW 335 0 min
28.06.2018 02:50 18,7 C 18,8 C 10,8 C 55 % 60 % 1020,7 hPa 0,0 l/m 6,7 km/h (2 Bft) W-NW 300 0 min
28.06.2018 02:55 18,5 C 18,6 C 10,8 C 56 % 61 % 1020,7 hPa 0,0 l/m 6,1 km/h (2 Bft) N-NO 30 0 min
28.06.2018 03:00 18,5 C 18,6 C 10,8 C 56 % 62 % 1020,7 hPa 0,0 l/m 6,1 km/h (2 Bft) NO 40 0 min
28.06.2018 03:05 18,3 C 18,4 C 10,8 C 57 % 62 % 1020,7 hPa 0,0 l/m 4,2 km/h (1 Bft) N 350 0 min
28.06.2018 03:10 18,3 C 18,3 C 10,8 C 57 % 63 % 1020,7 hPa 0,0 l/m 4,2 km/h (1 Bft) N 350 0 min
28.06.2018 03:15 17,5 C 17,9 C 10,8 C 60 % 64 % 1020,7 hPa 0,0 l/m 1,8 km/h (1 Bft) W-NW 285 0 min
28.06.2018 03:20 17,4 C 17,4 C 10,8 C 60 % 64 % 1020,7 hPa 0,0 l/m 1,2 km/h (1 Bft) NW 310 0 min
28.06.2018 03:25 17,2 C 17,2 C 10,8 C 61 % 65 % 1020,7 hPa 0,0 l/m 0,6 km/h (0 Bft) NW 320 0 min
28.06.2018 03:30 17,3 C 17,0 C 10,8 C 61 % 67 % 1019,7 hPa 0,0 l/m 9,1 km/h (2 Bft) N-NO 25 0 min
28.06.2018 03:35 17,6 C 17,3 C 10,8 C 60 % 67 % 1019,7 hPa 0,0 l/m 9,7 km/h (2 Bft) NO 45 0 min
28.06.2018 03:40 17,6 C 17,4 C 10,8 C 60 % 66 % 1019,7 hPa 0,0 l/m 7,3 km/h (2 Bft) NO 35 0 min
28.06.2018 03:45 17,6 C 17,5 C 10,8 C 60 % 66 % 1019,7 hPa 0,0 l/m 4,8 km/h (1 Bft) NO 50 0 min
28.06.2018 03:50 17,6 C 17,4 C 10,8 C 60 % 65 % 1019,7 hPa 0,0 l/m 5,4 km/h (2 Bft) NO 45 0 min
28.06.2018 03:55 17,5 C 17,4 C 10,8 C 60 % 66 % 1019,7 hPa 0,0 l/m 6,7 km/h (2 Bft) NO 40 0 min
28.06.2018 04:00 17,5 C 17,4 C 10,8 C 60 % 66 % 1020,7 hPa 0,0 l/m 3,6 km/h (1 Bft) N-NW 345 0 min
28.06.2018 04:05 17,4 C 17,3 C 10,8 C 61 % 66 % 1020,7 hPa 0,0 l/m 6,1 km/h (2 Bft) N-NO 15 0 min
28.06.2018 04:10 17,4 C 17,2 C 10,8 C 61 % 67 % 1020,7 hPa 0,0 l/m 3,0 km/h (1 Bft) NO 50 0 min
28.06.2018 04:15 17,3 C 17,1 C 10,8 C 61 % 67 % 1020,7 hPa 0,0 l/m 4,8 km/h (1 Bft) S 170 0 min
28.06.2018 04:20 17,1 C 16,9 C 10,8 C 62 % 67 % 1020,7 hPa 0,0 l/m 4,2 km/h (1 Bft) N-NO 25 0 min
28.06.2018 04:25 17,1 C 16,7 C 10,8 C 62 % 67 % 1020,7 hPa 0,0 l/m 3,6 km/h (1 Bft) NO 40 0 min
28.06.2018 04:30 17,1 C 16,7 C 10,8 C 62 % 68 % 1021,7 hPa 0,0 l/m 7,3 km/h (2 Bft) O 95 0 min
28.06.2018 04:35 17,0 C 16,7 C 10,8 C 62 % 68 % 1021,7 hPa 0,0 l/m 6,7 km/h (2 Bft) NO 55 0 min
28.06.2018 04:40 17,0 C 16,6 C 10,8 C 63 % 68 % 1021,7 hPa 0,0 l/m 6,1 km/h (2 Bft) O-NO 65 0 min
28.06.2018 04:45 16,9 C 16,6 C 10,8 C 63 % 69 % 1020,7 hPa 0,0 l/m 3,0 km/h (1 Bft) O-SO 110 0 min
28.06.2018 04:50 16,8 C 16,3 C 10,8 C 63 % 70 % 1020,7 hPa 0,0 l/m 3,6 km/h (1 Bft) O-SO 120 0 min
28.06.2018 04:55 16,7 C 16,2 C 10,8 C 64 % 69 % 1020,7 hPa 0,0 l/m 4,8 km/h (1 Bft) N 5 0 min
28.06.2018 05:00 16,6 C 16,2 C 10,8 C 64 % 70 % 1020,7 hPa 0,0 l/m 2,4 km/h (1 Bft) N-NO 30 0 min
28.06.2018 05:05 16,6 C 16,0 C 10,8 C 64 % 70 % 1020,7 hPa 0,0 l/m 7,3 km/h (2 Bft) N-NO 20 0 min
28.06.2018 05:10 16,6 C 15,9 C 10,8 C 64 % 71 % 1020,7 hPa 0,0 l/m 3,0 km/h (1 Bft) NW 320 0 min
28.06.2018 05:15 16,6 C 15,9 C 10,8 C 64 % 71 % 1020,7 hPa 0,0 l/m 7,3 km/h (2 Bft) NO 55 0 min
28.06.2018 05:20 16,5 C 15,8 C 10,8 C 64 % 72 % 1020,7 hPa 0,0 l/m 3,6 km/h (1 Bft) NO 45 0 min
28.06.2018 05:25 16,5 C 15,8 C 10,8 C 64 % 72 % 1020,7 hPa 0,0 l/m 3,0 km/h (1 Bft) SO 145 0 min
28.06.2018 05:30 16,3 C 15,7 C 10,8 C 65 % 72 % 1020,7 hPa 0,0 l/m 0,0 km/h (0 Bft) SW 215 0 min
28.06.2018 05:35 16,2 C 15,6 C 10,8 C 66 % 72 % 1020,7 hPa 0,0 l/m 1,2 km/h (1 Bft) NO 55 0 min
28.06.2018 05:40 16,2 C 15,6 C 10,8 C 66 % 72 % 1020,7 hPa 0,0 l/m 3,6 km/h (1 Bft) NW 320 0 min
28.06.2018 05:45 16,2 C 15,4 C 10,8 C 66 % 73 % 1020,7 hPa 0,0 l/m 3,6 km/h (1 Bft) NW 320 0 min
28.06.2018 05:50 16,1 C 15,5 C 10,8 C 66 % 73 % 1020,7 hPa 0,0 l/m 1,8 km/h (1 Bft) NW 325 0 min
28.06.2018 05:55 16,0 C 15,4 C 10,8 C 66 % 73 % 1020,7 hPa 0,0 l/m 2,4 km/h (1 Bft) O-NO 75 0 min
28.06.2018 06:00 16,1 C 15,4 C 10,8 C 66 % 74 % 1021,7 hPa 0,0 l/m 3,0 km/h (1 Bft) NO 40 0 min
28.06.2018 06:05 16,3 C 15,4 C 10,8 C 66 % 74 % 1021,7 hPa 0,0 l/m 2,4 km/h (1 Bft) NW 310 0 min
28.06.2018 06:10 16,5 C 15,4 C 10,8 C 66 % 74 % 1021,7 hPa 0,0 l/m 3,0 km/h (1 Bft) S 175 0 min
28.06.2018 06:15 16,6 C 15,4 C 10,8 C 65 % 74 % 1020,7 hPa 0,0 l/m 3,0 km/h (1 Bft) N-NO 30 0 min
28.06.2018 06:20 16,6 C 15,4 C 10,8 C 65 % 74 % 1020,7 hPa 0,0 l/m 1,2 km/h (1 Bft) W-NW 290 0 min
28.06.2018 06:25 16,6 C 15,4 C 10,8 C 65 % 74 % 1020,7 hPa 0,0 l/m 1,2 km/h (1 Bft) W-SW 250 0 min
28.06.2018 06:30 16,5 C 15,5 C 10,8 C 66 % 74 % 1020,7 hPa 0,0 l/m 0,6 km/h (0 Bft) SW 225 0 min
28.06.2018 06:35 16,5 C 15,7 C 10,8 C 66 % 75 % 1020,7 hPa 0,0 l/m 2,4 km/h (1 Bft) W-SW 245 0 min
28.06.2018 06:40 16,6 C 15,8 C 10,8 C 66 % 74 % 1020,7 hPa 0,0 l/m 0,0 km/h (0 Bft) W-NW 285 0 min
28.06.2018 06:45 16,6 C 16,0 C 10,8 C 66 % 74 % 1020,7 hPa 0,0 l/m 0,0 km/h (0 Bft) W-NW 295 0 min
28.06.2018 06:50 16,9 C 16,2 C 10,8 C 66 % 75 % 1020,7 hPa 0,0 l/m 0,0 km/h (0 Bft) W-NW 285 0 min
28.06.2018 06:55 17,3 C 16,4 C 10,8 C 65 % 74 % 1020,7 hPa 0,0 l/m 2,4 km/h (1 Bft) N-NO 30 0 min
28.06.2018 07:00 17,6 C 16,7 C 10,8 C 64 % 73 % 1020,7 hPa 0,0 l/m 1,2 km/h (1 Bft) O 85 0 min
28.06.2018 07:05 17,9 C 17,1 C 10,8 C 63 % 73 % 1020,7 hPa 0,0 l/m 3,0 km/h (1 Bft) N 10 0 min
28.06.2018 07:10 18,1 C 17,5 C 10,8 C 63 % 71 % 1020,7 hPa 0,0 l/m 2,4 km/h (1 Bft) S-SO 150 0 min
28.06.2018 07:15 18,3 C 17,8 C 10,8 C 62 % 70 % 1020,7 hPa 0,0 l/m 5,4 km/h (2 Bft) O 80 0 min
28.06.2018 07:20 18,6 C 18,1 C 10,8 C 61 % 69 % 1020,7 hPa 0,0 l/m 2,4 km/h (1 Bft) O 95 0 min
28.06.2018 07:25 18,8 C 18,3 C 10,8 C 60 % 68 % 1020,7 hPa 0,0 l/m 4,2 km/h (1 Bft) O 80 0 min
28.06.2018 07:30 19,0 C 18,6 C 10,8 C 59 % 68 % 1020,7 hPa 0,0 l/m 1,8 km/h (1 Bft) NW 310 0 min
28.06.2018 07:35 19,0 C 18,9 C 10,8 C 59 % 67 % 1020,7 hPa 0,0 l/m 1,8 km/h (1 Bft) NW 310 0 min
28.06.2018 07:40 19,2 C 19,0 C 10,8 C 59 % 67 % 1020,7 hPa 0,0 l/m 4,2 km/h (1 Bft) N-NW 330 0 min
28.06.2018 07:45 19,2 C 19,2 C 10,8 C 58 % 65 % 1020,7 hPa 0,0 l/m 8,5 km/h (2 Bft) S 185 5 min
28.06.2018 07:50 19,5 C 19,3 C 10,8 C 58 % 65 % 1020,7 hPa 0,0 l/m 4,2 km/h (1 Bft) O 90 6 min
28.06.2018 07:55 19,8 C 19,4 C 10,8 C 57 % 65 % 1020,7 hPa 0,0 l/m 4,2 km/h (1 Bft) N-NO 20 4 min
28.06.2018 08:00 19,8 C 19,7 C 10,8 C 57 % 63 % 1019,7 hPa 0,0 l/m 7,9 km/h (2 Bft) N-NO 15 3 min
28.06.2018 08:05 20,1 C 19,9 C 10,8 C 56 % 63 % 1019,7 hPa 0,0 l/m 7,3 km/h (2 Bft) N-NW 345 7 min
28.06.2018 08:10 20,2 C 20,0 C 10,8 C 55 % 63 % 1019,7 hPa 0,0 l/m 7,9 km/h (2 Bft) N-NO 25 6 min
28.06.2018 08:15 20,2 C 20,1 C 10,8 C 55 % 61 % 1020,7 hPa 0,0 l/m 9,7 km/h (2 Bft) NO 45 5 min
28.06.2018 08:20 20,4 C 20,0 C 10,8 C 54 % 61 % 1020,7 hPa 0,0 l/m 8,5 km/h (2 Bft) N-NO 30 5 min
28.06.2018 08:25 20,4 C 20,4 C 10,8 C 54 % 60 % 1020,7 hPa 0,0 l/m 11,5 km/h (2 Bft) O-NO 60 5 min
28.06.2018 08:30 20,7 C 20,6 C 10,8 C 53 % 59 % 1020,7 hPa 0,0 l/m 10,9 km/h (2 Bft) NO 45 5 min
28.06.2018 08:35 20,9 C 20,9 C 10,8 C 53 % 59 % 1020,7 hPa 0,0 l/m 10,9 km/h (2 Bft) N 10 5 min
28.06.2018 08:40 21,1 C 21,1 C 10,8 C 52 % 58 % 1020,7 hPa 0,0 l/m 9,7 km/h (2 Bft) N-NO 25 5 min
28.06.2018 08:45 21,4 C 21,2 C 10,8 C 52 % 58 % 1020,7 hPa 0,0 l/m 9,7 km/h (2 Bft) NO 40 5 min
28.06.2018 08:50 21,5 C 21,2 C 10,8 C 51 % 58 % 1020,7 hPa 0,0 l/m 9,7 km/h (2 Bft) NO 35 2 min
28.06.2018 08:55 21,6 C 21,5 C 10,8 C 51 % 58 % 1020,7 hPa 0,0 l/m 12,1 km/h (2 Bft) N 350 8 min
28.06.2018 09:00 21,6 C 21,4 C 10,8 C 50 % 57 % 1020,7 hPa 0,0 l/m 17,6 km/h (3 Bft) N 10 5 min
28.06.2018 09:05 21,9 C 21,6 C 10,8 C 50 % 56 % 1020,7 hPa 0,0 l/m 16,3 km/h (3 Bft) N 350 5 min
28.06.2018 09:10 22,2 C 21,6 C 10,8 C 49 % 56 % 1020,7 hPa 0,0 l/m 12,7 km/h (3 Bft) N-NO 20 5 min
28.06.2018 09:15 22,3 C 21,9 C 10,8 C 49 % 56 % 1020,7 hPa 0,0 l/m 13,9 km/h (3 Bft) N 5 5 min
28.06.2018 09:20 22,4 C 22,1 C 10,8 C 48 % 56 % 1020,7 hPa 0,0 l/m 15,1 km/h (3 Bft) NO 45 5 min
28.06.2018 09:25 22,5 C 22,3 C 10,8 C 48 % 55 % 1020,7 hPa 0,0 l/m 8,5 km/h (2 Bft) NO 45 5 min
28.06.2018 09:30 22,9 C 22,5 C 10,8 C 48 % 54 % 1020,6 hPa 0,0 l/m 11,5 km/h (2 Bft) N 350 6 min
28.06.2018 09:35 23,1 C 22,6 C 10,8 C 48 % 55 % 1020,6 hPa 0,0 l/m 6,1 km/h (2 Bft) NW 325 0 min
28.06.2018 09:40 23,5 C 22,8 C 10,8 C 46 % 52 % 1020,6 hPa 0,0 l/m 10,3 km/h (2 Bft) N-NO 20 0 min
28.06.2018 09:45 23,5 C 23,0 C 10,8 C 46 % 52 % 1020,6 hPa 0,0 l/m 13,3 km/h (3 Bft) N 350 0 min
28.06.2018 09:50 23,6 C 23,2 C 10,8 C 45 % 50 % 1020,6 hPa 0,0 l/m 17,6 km/h (3 Bft) N-NO 20 0 min
28.06.2018 09:55 23,8 C 23,2 C 10,8 C 45 % 51 % 1020,6 hPa 0,0 l/m 15,1 km/h (3 Bft) N 10 5 min
28.06.2018 10:00 24,1 C 23,5 C 10,8 C 45 % 51 % 1020,6 hPa 0,0 l/m 13,3 km/h (3 Bft) N-NO 20 5 min
28.06.2018 10:05 23,9 C 23,8 C 10,8 C 44 % 49 % 1020,6 hPa 0,0 l/m 15,1 km/h (3 Bft) N-NO 25 5 min
28.06.2018 10:09 24,1 C 24,1 C 10,8 C 43 % 48 % 1020,6 hPa 0,0 l/m 22,4 km/h (4 Bft) NO 50 5 min
28.06.2018 10:13 24,3 C 24,2 C 10,8 C 43 % 48 % 1020,6 hPa 0,0 l/m 14,5 km/h (3 Bft) O-SO 105 2 min
28.06.2018 10:15 24,3 C 24,3 C 10,8 C 43 % 47 % 1020,6 hPa 0,0 l/m 14,5 km/h (3 Bft) O-SO 105 0 min
28.06.2018 10:20 24,9 C 24,5 C 10,8 C 41 % 48 % 1020,6 hPa 0,0 l/m 14,5 km/h (3 Bft) SO 125 7 min
28.06.2018 10:25 25,0 C 24,7 C 10,8 C 41 % 47 % 1020,6 hPa 0,0 l/m 9,7 km/h (2 Bft) N 0 6 min
28.06.2018 10:30 25,3 C 24,9 C 10,8 C 41 % 46 % 1020,6 hPa 0,0 l/m 12,1 km/h (2 Bft) O-NO 65 4 min
28.06.2018 10:35 25,0 C 24,8 C 10,8 C 41 % 47 % 1020,6 hPa 0,0 l/m 15,1 km/h (3 Bft) SO 145 3 min
28.06.2018 10:40 25,3 C 25,0 C 10,8 C 40 % 45 % 1020,6 hPa 0,0 l/m 14,5 km/h (3 Bft) NW 310 7 min
28.06.2018 10:45 25,6 C 25,1 C 10,8 C 40 % 45 % 1020,6 hPa 0,0 l/m 9,1 km/h (2 Bft) SO 145 3 min
28.06.2018 10:50 25,6 C 25,2 C 10,8 C 39 % 45 % 1020,6 hPa 0,0 l/m 16,9 km/h (3 Bft) SO 130 6 min
28.06.2018 10:55 25,7 C 25,4 C 10,8 C 40 % 43 % 1020,6 hPa 0,0 l/m 15,1 km/h (3 Bft) O 100 4 min
28.06.2018 11:00 25,9 C 25,4 C 10,8 C 39 % 44 % 1020,6 hPa 0,0 l/m 19,4 km/h (3 Bft) O-SO 115 6 min
28.06.2018 11:05 25,9 C 25,4 C 10,8 C 40 % 44 % 1020,6 hPa 0,0 l/m 12,7 km/h (3 Bft) S-SO 150 4 min
28.06.2018 11:10 25,5 C 25,6 C 10,8 C 40 % 43 % 1020,6 hPa 0,0 l/m 20,6 km/h (4 Bft) SO 140 6 min
28.06.2018 11:15 25,6 C 25,5 C 10,8 C 40 % 44 % 1020,6 hPa 0,0 l/m 21,8 km/h (4 Bft) O-SO 120 5 min
28.06.2018 11:20 25,7 C 25,5 C 10,8 C 40 % 44 % 1020,6 hPa 0,0 l/m 16,3 km/h (3 Bft) O-SO 105 5 min
28.06.2018 11:25 25,8 C 25,6 C 10,8 C 39 % 43 % 1020,6 hPa 0,0 l/m 15,1 km/h (3 Bft) N-NO 30 5 min
28.06.2018 11:30 25,7 C 25,4 C 10,8 C 39 % 43 % 1020,6 hPa 0,0 l/m 16,9 km/h (3 Bft) O 85 5 min
28.06.2018 11:35 25,5 C 25,4 C 10,8 C 39 % 43 % 1020,6 hPa 0,0 l/m 30,9 km/h (5 Bft) O-SO 120 6 min
28.06.2018 11:40 25,8 C 25,5 C 10,8 C 39 % 44 % 1020,6 hPa 0,0 l/m 23,0 km/h (4 Bft) O 95 4 min
28.06.2018 11:45 25,9 C 25,7 C 10,8 C 39 % 43 % 1019,6 hPa 0,0 l/m 13,3 km/h (3 Bft) O-NO 70 5 min
28.06.2018 11:50 26,2 C 25,9 C 10,8 C 39 % 43 % 1019,6 hPa 0,0 l/m 21,2 km/h (4 Bft) O-NO 75 5 min
28.06.2018 11:55 26,2 C 26,1 C 10,8 C 38 % 43 % 1019,6 hPa 0,0 l/m 13,9 km/h (3 Bft) O-SO 110 5 min
28.06.2018 12:00 26,5 C 26,2 C 10,8 C 38 % 42 % 1020,6 hPa 0,0 l/m 24,8 km/h (4 Bft) O-NO 75 5 min
28.06.2018 12:05 26,7 C 26,2 C 10,8 C 38 % 42 % 1020,6 hPa 0,0 l/m 15,7 km/h (3 Bft) N-NO 20 6 min
28.06.2018 12:10 26,9 C 26,4 C 10,8 C 38 % 42 % 1020,6 hPa 0,0 l/m 13,9 km/h (3 Bft) O-SO 120 5 min
28.06.2018 12:15 26,9 C 26,3 C 10,8 C 37 % 42 % 1019,6 hPa 0,0 l/m 19,4 km/h (3 Bft) S-SO 160 5 min
28.06.2018 12:20 27,0 C 26,5 C 10,8 C 37 % 42 % 1019,6 hPa 0,0 l/m 13,3 km/h (3 Bft) S-SO 155 5 min
28.06.2018 12:25 27,3 C 26,5 C 10,8 C 36 % 41 % 1019,6 hPa 0,0 l/m 20,6 km/h (4 Bft) S-SO 155 5 min
28.06.2018 12:30 27,3 C 26,7 C 10,8 C 37 % 42 % 1019,6 hPa 0,0 l/m 21,2 km/h (4 Bft) O-SO 120 3 min
28.06.2018 12:35 26,9 C 26,8 C 10,8 C 37 % 42 % 1019,6 hPa 0,0 l/m 15,1 km/h (3 Bft) NO 45 7 min
28.06.2018 12:40 26,8 C 26,7 C 10,8 C 37 % 40 % 1019,6 hPa 0,0 l/m 17,6 km/h (3 Bft) O 100 6 min
28.06.2018 12:45 26,8 C 26,8 C 10,8 C 36 % 40 % 1019,6 hPa 0,0 l/m 21,8 km/h (4 Bft) NO 35 4 min
28.06.2018 12:50 27,1 C 27,0 C 10,8 C 36 % 38 % 1019,6 hPa 0,0 l/m 18,8 km/h (3 Bft) O-SO 110 3 min
28.06.2018 12:55 26,9 C 26,9 C 10,8 C 36 % 40 % 1019,6 hPa 0,0 l/m 15,7 km/h (3 Bft) N-NO 30 6 min
28.06.2018 13:00 27,1 C 26,9 C 10,8 C 36 % 40 % 1019,6 hPa 0,0 l/m 16,3 km/h (3 Bft) O-NO 75 4 min
28.06.2018 13:05 27,3 C 27,1 C 10,8 C 35 % 40 % 1019,6 hPa 0,0 l/m 13,9 km/h (3 Bft) O-SO 105 5 min
28.06.2018 13:10 27,3 C 27,3 C 10,8 C 36 % 39 % 1019,6 hPa 0,0 l/m 21,8 km/h (4 Bft) S-SO 160 5 min
28.06.2018 13:15 27,8 C 27,4 C 10,8 C 36 % 41 % 1019,6 hPa 0,0 l/m 21,2 km/h (4 Bft) O-SO 105 6 min
28.06.2018 13:20 28,0 C 27,6 C 10,8 C 34 % 38 % 1019,6 hPa 0,0 l/m 14,5 km/h (3 Bft) N-NO 25 6 min
28.06.2018 13:25 27,3 C 27,2 C 10,8 C 35 % 40 % 1019,6 hPa 0,0 l/m 14,5 km/h (3 Bft) NO 50 3 min
28.06.2018 13:30 28,0 C 27,5 C 10,8 C 35 % 39 % 1019,6 hPa 0,0 l/m 12,7 km/h (3 Bft) SO 145 7 min
28.06.2018 13:35 27,9 C 27,6 C 10,8 C 34 % 37 % 1019,6 hPa 0,0 l/m 10,9 km/h (2 Bft) O-SO 105 3 min
28.06.2018 13:40 27,7 C 27,5 C 10,8 C 35 % 38 % 1019,6 hPa 0,0 l/m 7,9 km/h (2 Bft) O 85 8 min
28.06.2018 13:45 28,1 C 27,6 C 10,8 C 34 % 37 % 1019,6 hPa 0,0 l/m 17,6 km/h (3 Bft) S-SO 160 3 min
28.06.2018 13:50 28,4 C 27,8 C 10,8 C 34 % 38 % 1019,6 hPa 0,0 l/m 16,9 km/h (3 Bft) N 350 5 min
28.06.2018 13:55 27,6 C 27,9 C 10,8 C 34 % 36 % 1019,6 hPa 0,0 l/m 22,4 km/h (4 Bft) NO 50 4 min
28.06.2018 14:00 27,9 C 27,8 C 10,8 C 34 % 37 % 1018,6 hPa 0,0 l/m 8,5 km/h (2 Bft) NO 45 6 min
28.06.2018 14:05 28,0 C 27,8 C 10,8 C 35 % 37 % 1018,6 hPa 0,0 l/m 16,9 km/h (3 Bft) O-NO 60 5 min
28.06.2018 14:10 28,3 C 28,0 C 10,8 C 34 % 37 % 1018,6 hPa 0,0 l/m 16,3 km/h (3 Bft) N-NW 345 6 min
28.06.2018 14:15 27,6 C 28,0 C 10,8 C 34 % 36 % 1018,6 hPa 0,0 l/m 23,0 km/h (4 Bft) N-NO 25 4 min
28.06.2018 14:20 27,9 C 28,2 C 10,8 C 34 % 37 % 1018,6 hPa 0,0 l/m 18,8 km/h (3 Bft) NO 40 3 min
28.06.2018 14:25 28,4 C 28,2 C 10,8 C 34 % 36 % 1018,6 hPa 0,0 l/m 22,4 km/h (4 Bft) NO 55 5 min
28.06.2018 14:30 27,9 C 28,2 C 10,8 C 34 % 36 % 1018,6 hPa 0,0 l/m 21,2 km/h (4 Bft) N-NW 335 5 min
28.06.2018 14:35 27,7 C 28,2 C 10,8 C 34 % 35 % 1018,6 hPa 0,0 l/m 26,3 km/h (4 Bft) N-NO 15 6 min
28.06.2018 14:40 27,5 C 27,8 C 10,8 C 34 % 35 % 1018,6 hPa 0,0 l/m 20,0 km/h (4 Bft) N-NO 25 1 min
28.06.2018 14:45 27,5 C 27,7 C 10,8 C 34 % 36 % 1018,6 hPa 0,0 l/m 18,2 km/h (3 Bft) N-NO 20 1 min
28.06.2018 14:50 27,3 C 27,9 C 10,8 C 34 % 36 % 1018,6 hPa 0,0 l/m 21,8 km/h (4 Bft) N-NO 25 4 min
28.06.2018 14:55 27,5 C 28,0 C 10,8 C 34 % 36 % 1018,6 hPa 0,0 l/m 14,5 km/h (3 Bft) O-NO 65 6 min
28.06.2018 15:00 27,8 C 28,0 C 10,8 C 34 % 35 % 1018,6 hPa 0,0 l/m 23,0 km/h (4 Bft) N-NO 20 3 min
28.06.2018 15:05 27,5 C 27,8 C 10,8 C 33 % 35 % 1018,6 hPa 0,0 l/m 14,5 km/h (3 Bft) NW 325 0 min
28.06.2018 15:10 27,2 C 27,5 C 10,8 C 33 % 35 % 1018,6 hPa 0,0 l/m 12,7 km/h (3 Bft) N-NO 15 0 min
28.06.2018 15:15 27,8 C 27,8 C 10,8 C 34 % 36 % 1018,6 hPa 0,0 l/m 15,7 km/h (3 Bft) NO 45 5 min
28.06.2018 15:20 27,7 C 27,9 C 10,8 C 34 % 37 % 1018,6 hPa 0,0 l/m 18,2 km/h (3 Bft) O 80 1 min
28.06.2018 15:25 27,7 C 28,0 C 10,8 C 33 % 35 % 1018,6 hPa 0,0 l/m 23,0 km/h (4 Bft) NO 55 0 min
28.06.2018 15:30 27,9 C 28,1 C 10,8 C 33 % 36 % 1017,6 hPa 0,0 l/m 16,9 km/h (3 Bft) N-NO 25 1 min
28.06.2018 15:35 28,3 C 28,2 C 10,8 C 32 % 35 % 1017,6 hPa 0,0 l/m 20,6 km/h (4 Bft) N-NO 30 4 min
28.06.2018 15:40 28,0 C 28,3 C 10,8 C 32 % 34 % 1017,6 hPa 0,0 l/m 25,4 km/h (4 Bft) N 350 1 min
28.06.2018 15:45 28,4 C 28,5 C 10,8 C 32 % 35 % 1017,6 hPa 0,0 l/m 21,8 km/h (4 Bft) NO 50 0 min
28.06.2018 15:50 28,7 C 28,7 C 10,8 C 32 % 34 % 1017,6 hPa 0,0 l/m 20,6 km/h (4 Bft) N 5 1 min
28.06.2018 15:55 29,0 C 28,9 C 10,8 C 32 % 35 % 1017,6 hPa 0,0 l/m 12,1 km/h (2 Bft) SO 125 0 min
28.06.2018 16:00 29,2 C 29,0 C 10,8 C 31 % 33 % 1017,6 hPa 0,0 l/m 9,7 km/h (2 Bft) O 80 0 min
28.06.2018 16:05 28,6 C 28,7 C 10,8 C 31 % 34 % 1017,6 hPa 0,0 l/m 22,4 km/h (4 Bft) SO 135 0 min
28.06.2018 16:10 28,8 C 28,6 C 10,8 C 30 % 34 % 1017,6 hPa 0,0 l/m 21,2 km/h (4 Bft) O 100 0 min
28.06.2018 16:15 28,8 C 28,8 C 10,8 C 31 % 32 % 1017,6 hPa 0,0 l/m 20,0 km/h (4 Bft) W 280 0 min
28.06.2018 16:20 28,9 C 28,9 C 10,8 C 32 % 34 % 1017,6 hPa 0,0 l/m 13,3 km/h (3 Bft) NO 35 4 min
28.06.2018 16:25 29,2 C 29,1 C 10,8 C 32 % 35 % 1017,6 hPa 0,0 l/m 16,9 km/h (3 Bft) N-NW 345 0 min
28.06.2018 16:30 28,1 C 28,7 C 10,8 C 31 % 33 % 1017,6 hPa 0,0 l/m 16,3 km/h (3 Bft) N-NO 15 1 min
28.06.2018 16:35 28,0 C 28,5 C 10,8 C 32 % 34 % 1017,6 hPa 0,0 l/m 18,2 km/h (3 Bft) NO 45 1 min
28.06.2018 16:40 28,3 C 28,6 C 10,8 C 32 % 33 % 1017,6 hPa 0,0 l/m 16,9 km/h (3 Bft) O-NO 60 0 min
28.06.2018 16:45 28,4 C 28,7 C 10,8 C 31 % 34 % 1017,6 hPa 0,0 l/m 15,7 km/h (3 Bft) NO 35 0 min
28.06.2018 16:50 28,6 C 28,9 C 10,8 C 31 % 33 % 1017,6 hPa 0,0 l/m 24,8 km/h (4 Bft) N-NW 340 0 min
28.06.2018 16:55 28,0 C 28,7 C 10,8 C 32 % 33 % 1017,6 hPa 0,0 l/m 26,7 km/h (4 Bft) N 0 1 min
28.06.2018 17:00 28,1 C 28,5 C 10,8 C 32 % 34 % 1017,6 hPa 0,0 l/m 23,0 km/h (4 Bft) NO 35 1 min
28.06.2018 17:05 28,7 C 28,8 C 10,8 C 32 % 34 % 1017,6 hPa 0,0 l/m 18,2 km/h (3 Bft) N 350 1 min
28.06.2018 17:10 29,0 C 29,0 C 10,8 C 32 % 34 % 1017,6 hPa 0,0 l/m 18,8 km/h (3 Bft) NO 35 2 min
28.06.2018 17:15 28,6 C 29,0 C 10,8 C 31 % 34 % 1016,6 hPa 0,0 l/m 16,3 km/h (3 Bft) N 10 1 min
28.06.2018 17:20 28,6 C 29,2 C 10,8 C 31 % 33 % 1016,6 hPa 0,0 l/m 23,6 km/h (4 Bft) N-NO 15 0 min
28.06.2018 17:25 28,3 C 28,9 C 10,8 C 32 % 33 % 1016,6 hPa 0,0 l/m 22,4 km/h (4 Bft) NO 45 2 min
28.06.2018 17:30 28,3 C 28,8 C 10,8 C 32 % 34 % 1016,6 hPa 0,0 l/m 18,8 km/h (3 Bft) NW 315 0 min
28.06.2018 17:35 28,0 C 28,8 C 10,8 C 33 % 34 % 1016,6 hPa 0,0 l/m 20,6 km/h (4 Bft) N 0 3 min
28.06.2018 17:40 28,5 C 28,8 C 10,8 C 32 % 35 % 1016,6 hPa 0,0 l/m 16,9 km/h (3 Bft) N-NO 15 5 min
28.06.2018 17:45 28,1 C 28,8 C 10,8 C 32 % 34 % 1016,6 hPa 0,0 l/m 27,8 km/h (5 Bft) NO 35 3 min
28.06.2018 17:50 28,2 C 28,7 C 10,8 C 32 % 34 % 1016,6 hPa 0,0 l/m 19,4 km/h (3 Bft) N-NW 335 3 min
28.06.2018 17:55 28,2 C 28,5 C 10,8 C 33 % 35 % 1016,6 hPa 0,0 l/m 20,6 km/h (4 Bft) N-NO 15 1 min
28.06.2018 18:00 27,8 C 28,6 C 10,8 C 33 % 35 % 1016,6 hPa 0,0 l/m 17,6 km/h (3 Bft) N-NO 15 0 min
28.06.2018 18:05 28,1 C 28,7 C 10,8 C 33 % 35 % 1016,6 hPa 0,0 l/m 21,2 km/h (4 Bft) NO 45 4 min
28.06.2018 18:10 28,5 C 28,7 C 10,8 C 32 % 33 % 1016,6 hPa 0,0 l/m 21,2 km/h (4 Bft) N-NO 20 2 min
28.06.2018 18:15 27,9 C 28,4 C 10,8 C 33 % 34 % 1016,6 hPa 0,0 l/m 21,8 km/h (4 Bft) N-NO 15 1 min
28.06.2018 18:20 27,5 C 28,2 C 10,8 C 33 % 35 % 1016,6 hPa 0,0 l/m 26,3 km/h (4 Bft) N-NO 15 0 min
28.06.2018 18:25 27,8 C 28,3 C 10,8 C 33 % 34 % 1016,6 hPa 0,0 l/m 19,4 km/h (3 Bft) N-NO 30 1 min
28.06.2018 18:30 27,9 C 28,3 C 10,8 C 33 % 35 % 1016,6 hPa 0,0 l/m 28,2 km/h (5 Bft) N-NO 30 0 min
28.06.2018 18:35 28,0 C 28,4 C 10,8 C 33 % 36 % 1016,6 hPa 0,0 l/m 27,1 km/h (5 Bft) O 85 4 min
28.06.2018 18:40 28,1 C 28,2 C 10,8 C 33 % 35 % 1016,6 hPa 0,0 l/m 24,2 km/h (4 Bft) N 10 5 min
28.06.2018 18:45 28,3 C 28,3 C 10,8 C 33 % 36 % 1016,6 hPa 0,0 l/m 13,9 km/h (3 Bft) SO 135 5 min
28.06.2018 18:50 27,7 C 27,9 C 10,8 C 33 % 36 % 1016,6 hPa 0,0 l/m 18,2 km/h (3 Bft) N-NO 20 0 min
28.06.2018 18:55 27,6 C 27,9 C 10,8 C 33 % 35 % 1016,6 hPa 0,0 l/m 23,0 km/h (4 Bft) NO 40 5 min
28.06.2018 19:00 27,7 C 27,9 C 10,8 C 34 % 36 % 1016,6 hPa 0,0 l/m 13,3 km/h (3 Bft) N-NW 345 6 min
28.06.2018 19:05 28,0 C 28,0 C 10,8 C 33 % 36 % 1016,6 hPa 0,0 l/m 13,3 km/h (3 Bft) NW 325 3 min
28.06.2018 19:10 28,3 C 28,1 C 10,8 C 33 % 36 % 1016,6 hPa 0,0 l/m 20,0 km/h (4 Bft) NO 50 4 min
28.06.2018 19:15 28,0 C 28,0 C 10,8 C 32 % 34 % 1016,6 hPa 0,0 l/m 17,6 km/h (3 Bft) NO 45 4 min
28.06.2018 19:20 28,0 C 28,1 C 10,8 C 33 % 35 % 1016,6 hPa 0,0 l/m 19,4 km/h (3 Bft) NO 40 3 min
28.06.2018 19:25 28,2 C 28,2 C 10,8 C 33 % 35 % 1016,6 hPa 0,0 l/m 20,0 km/h (4 Bft) SO 135 7 min
28.06.2018 19:30 27,7 C 28,0 C 10,8 C 34 % 36 % 1016,6 hPa 0,0 l/m 24,8 km/h (4 Bft) N-NO 15 3 min
28.06.2018 19:35 27,7 C 28,0 C 10,8 C 34 % 36 % 1016,6 hPa 0,0 l/m 26,0 km/h (4 Bft) O-SO 115 5 min
28.06.2018 19:40 27,7 C 28,0 C 10,8 C 34 % 36 % 1016,6 hPa 0,0 l/m 15,7 km/h (3 Bft) O-SO 105 5 min
28.06.2018 19:45 27,7 C 27,7 C 10,8 C 34 % 36 % 1015,6 hPa 0,0 l/m 16,9 km/h (3 Bft) O 80 0 min
28.06.2018 19:50 27,1 C 27,6 C 10,8 C 34 % 36 % 1015,6 hPa 0,0 l/m 13,9 km/h (3 Bft) N-NO 15 0 min
28.06.2018 19:55 26,9 C 27,3 C 10,8 C 35 % 37 % 1015,6 hPa 0,0 l/m 12,7 km/h (3 Bft) NO 45 1 min
28.06.2018 20:00 26,8 C 27,2 C 10,8 C 35 % 38 % 1016,6 hPa 0,0 l/m 12,7 km/h (3 Bft) O-NO 75 3 min
28.06.2018 20:05 26,9 C 27,2 C 10,8 C 35 % 38 % 1016,6 hPa 0,0 l/m 21,8 km/h (4 Bft) NO 55 2 min
28.06.2018 20:10 26,7 C 27,2 C 10,8 C 35 % 37 % 1016,6 hPa 0,0 l/m 24,2 km/h (4 Bft) O-NO 75 1 min
28.06.2018 20:15 26,6 C 27,0 C 10,8 C 35 % 37 % 1016,6 hPa 0,0 l/m 16,9 km/h (3 Bft) S 185 1 min
28.06.2018 20:20 26,7 C 27,0 C 10,8 C 35 % 38 % 1016,6 hPa 0,0 l/m 19,4 km/h (3 Bft) O 85 5 min
28.06.2018 20:25 26,6 C 26,8 C 10,8 C 36 % 38 % 1016,6 hPa 0,0 l/m 15,7 km/h (3 Bft) N 350 0 min
28.06.2018 20:30 26,3 C 26,6 C 10,8 C 36 % 38 % 1015,6 hPa 0,0 l/m 18,8 km/h (3 Bft) NO 35 0 min
28.06.2018 20:35 26,3 C 26,6 C 10,8 C 36 % 39 % 1015,6 hPa 0,0 l/m 14,5 km/h (3 Bft) N-NO 20 0 min
28.06.2018 20:40 26,2 C 26,5 C 10,8 C 37 % 39 % 1015,6 hPa 0,0 l/m 15,1 km/h (3 Bft) W-NW 290 0 min
28.06.2018 20:45 26,0 C 26,4 C 10,8 C 37 % 39 % 1016,6 hPa 0,0 l/m 15,1 km/h (3 Bft) O-NO 75 0 min
28.06.2018 20:50 26,0 C 26,2 C 10,8 C 37 % 40 % 1016,6 hPa 0,0 l/m 17,6 km/h (3 Bft) N-NO 15 0 min
28.06.2018 20:55 26,0 C 26,2 C 10,8 C 37 % 40 % 1016,6 hPa 0,0 l/m 23,6 km/h (4 Bft) N-NO 20 0 min
28.06.2018 21:00 26,0 C 26,1 C 10,8 C 37 % 41 % 1016,6 hPa 0,0 l/m 22,4 km/h (4 Bft) O-NO 60 0 min
28.06.2018 21:05 25,9 C 26,0 C 10,8 C 37 % 41 % 1016,6 hPa 0,0 l/m 18,2 km/h (3 Bft) NO 55 0 min
28.06.2018 21:10 25,8 C 25,9 C 10,8 C 37 % 41 % 1016,6 hPa 0,0 l/m 15,1 km/h (3 Bft) N 355 0 min
28.06.2018 21:15 25,7 C 25,9 C 10,8 C 37 % 41 % 1016,6 hPa 0,0 l/m 18,2 km/h (3 Bft) NO 50 0 min
28.06.2018 21:20 25,6 C 25,8 C 10,8 C 37 % 41 % 1016,6 hPa 0,0 l/m 16,9 km/h (3 Bft) N-NO 25 0 min
28.06.2018 21:25 25,6 C 25,7 C 10,8 C 37 % 41 % 1016,6 hPa 0,0 l/m 19,4 km/h (3 Bft) NO 40 0 min
28.06.2018 21:30 25,5 C 25,6 C 10,8 C 38 % 42 % 1015,6 hPa 0,0 l/m 16,3 km/h (3 Bft) N-NO 20 0 min
28.06.2018 21:35 25,3 C 25,5 C 10,8 C 38 % 42 % 1015,6 hPa 0,0 l/m 14,5 km/h (3 Bft) N-NO 15 0 min
28.06.2018 21:40 25,3 C 25,4 C 10,8 C 38 % 42 % 1015,6 hPa 0,0 l/m 11,5 km/h (2 Bft) NO 50 0 min
28.06.2018 21:45 25,1 C 25,4 C 10,8 C 39 % 42 % 1016,6 hPa 0,0 l/m 12,1 km/h (2 Bft) N 5 0 min
28.06.2018 21:50 25,0 C 25,2 C 10,8 C 39 % 43 % 1016,6 hPa 0,0 l/m 21,8 km/h (4 Bft) N-NO 20 0 min
28.06.2018 21:55 24,9 C 25,1 C 10,8 C 39 % 43 % 1016,6 hPa 0,0 l/m 7,9 km/h (2 Bft) N 355 0 min
28.06.2018 22:00 24,7 C 25,0 C 10,8 C 40 % 43 % 1016,6 hPa 0,0 l/m 9,7 km/h (2 Bft) N-NO 25 0 min
28.06.2018 22:05 24,6 C 24,9 C 10,8 C 40 % 44 % 1016,6 hPa 0,0 l/m 18,2 km/h (3 Bft) N 5 0 min
28.06.2018 22:10 24,5 C 24,8 C 10,8 C 40 % 44 % 1016,6 hPa 0,0 l/m 16,9 km/h (3 Bft) N 10 0 min
28.06.2018 22:15 24,5 C 24,7 C 10,8 C 40 % 44 % 1016,6 hPa 0,0 l/m 13,9 km/h (3 Bft) N 5 0 min
28.06.2018 22:20 24,3 C 24,6 C 10,8 C 41 % 44 % 1016,6 hPa 0,0 l/m 14,5 km/h (3 Bft) N-NO 25 0 min
28.06.2018 22:25 24,2 C 24,5 C 10,8 C 41 % 45 % 1016,6 hPa 0,0 l/m 11,5 km/h (2 Bft) NO 55 0 min
28.06.2018 22:30 24,1 C 24,4 C 10,8 C 41 % 45 % 1016,6 hPa 0,0 l/m 15,1 km/h (3 Bft) N-NO 20 0 min
28.06.2018 22:35 24,1 C 24,3 C 10,8 C 41 % 46 % 1016,6 hPa 0,0 l/m 13,3 km/h (3 Bft) NO 35 0 min
28.06.2018 22:40 23,9 C 24,2 C 10,8 C 42 % 46 % 1016,6 hPa 0,0 l/m 9,1 km/h (2 Bft) N-NW 335 0 min
28.06.2018 22:45 23,9 C 24,1 C 10,8 C 42 % 46 % 1016,6 hPa 0,0 l/m 18,2 km/h (3 Bft) O-SO 110 0 min
28.06.2018 22:50 23,9 C 24,1 C 10,8 C 42 % 46 % 1016,6 hPa 0,0 l/m 13,9 km/h (3 Bft) N-NO 25 0 min
28.06.2018 22:55 23,9 C 24,0 C 10,8 C 42 % 46 % 1016,6 hPa 0,0 l/m 17,6 km/h (3 Bft) NO 45 0 min
28.06.2018 23:00 23,9 C 24,0 C 10,8 C 42 % 46 % 1016,6 hPa 0,0 l/m 20,0 km/h (4 Bft) N-NO 25 0 min
28.06.2018 23:05 23,7 C 23,9 C 10,8 C 42 % 47 % 1016,6 hPa 0,0 l/m 13,9 km/h (3 Bft) O-NO 70 0 min
28.06.2018 23:10 23,5 C 23,8 C 10,8 C 43 % 47 % 1016,6 hPa 0,0 l/m 10,9 km/h (2 Bft) N 0 0 min
28.06.2018 23:15 23,5 C 23,7 C 10,8 C 43 % 48 % 1016,6 hPa 0,0 l/m 14,5 km/h (3 Bft) N 10 0 min
28.06.2018 23:20 23,4 C 23,5 C 10,8 C 43 % 48 % 1016,6 hPa 0,0 l/m 10,3 km/h (2 Bft) N-NO 25 0 min
28.06.2018 23:25 23,3 C 23,5 C 10,8 C 44 % 48 % 1016,6 hPa 0,0 l/m 16,9 km/h (3 Bft) N-NO 15 0 min
28.06.2018 23:30 23,1 C 23,4 C 10,8 C 44 % 49 % 1016,6 hPa 0,0 l/m 10,9 km/h (2 Bft) N-NO 25 0 min
28.06.2018 23:35 23,1 C 23,3 C 10,8 C 44 % 49 % 1016,6 hPa 0,0 l/m 14,5 km/h (3 Bft) N-NW 335 0 min
28.06.2018 23:40 23,0 C 23,2 C 10,8 C 45 % 49 % 1016,6 hPa 0,0 l/m 13,3 km/h (3 Bft) N 350 0 min
28.06.2018 23:45 22,8 C 23,1 C 10,8 C 45 % 50 % 1017,6 hPa 0,0 l/m 14,5 km/h (3 Bft) NO 45 0 min
28.06.2018 23:50 22,7 C 22,9 C 10,8 C 45 % 50 % 1017,6 hPa 0,0 l/m 18,2 km/h (3 Bft) O-NO 70 0 min
28.06.2018 23:55 22,6 C 22,9 C 10,8 C 46 % 50 % 1017,6 hPa 0,0 l/m 11,5 km/h (2 Bft) N-NW 335 0 min
_ Min-Zeit 05:55 05:45 00:00 16:10 16:15 19:45 - 05:30 - - -
Minimum _ 16,0 C 15,4 C 10,8 C 30 % 32 % 1015,6 hPa - 0,0 km/h (0 Bft) - - -
_ Max-Zeit 16:00 17:20 00:00 05:35 06:35 06:00 00:00 11:35 - - 08:55
Maximum _ 29,2 C 29,2 C 10,8 C 66 % 75 % 1021,7 hPa 0,0 l/m 30,9 km/h
O-SO (5 Bft)
- - 8 min
Durchschnitt _ 23,5 C 23,5 C 10,8 C 45 % 49 % 1019,0 hPa #0,0 l/m 13,5 km/h (3 Bft) NO - #8:51 h